Regional Weather Roundup
Issued by NWS Jackson, KY

Home | Current Version | Previous Version | Graphics & Text | Print | Product List | Glossary On
Versions: 1 2 3 4 5 6 7 8 9 10 11 12 13 14 15 16 17 18 19 20 21 22 23 24 25 26 27 28 29 30 31 32 33 34 35 36 37 38 39 40 41 42 43 44 45 46 47 48 49 50
000
ASUS43 KJKL 081910
RWRJKL

EAST KENTUCKY HOURLY WEATHER ROUNDUP
NATIONAL WEATHER SERVICE JACKSON KY
200 PM EST THU DEC 08 2016

NOTE: "FAIR" INDICATES FEW OR NO CLOUDS BELOW 12,000 FEET WITH
NO SIGNIFICANT WEATHER AND/OR OBSTRUCTIONS TO VISIBILITY.

* THESE REPORTS ARE NOT UNDER NWS QUALITY CONTROL AND MAY NOT
  REPORT WEATHER SUCH AS PRECIPITATION AND FOG.

KYZ079-080-083-085-087-088-110-112-115-119-120-082000
...EASTERN KENTUCKY...

CITY           SKY/WX    TMP DP  RH WIND       PRES   REMARKS
JACKSON        SUNNY     36  17  46 NW9       30.23F WCI  29
LONDON         SUNNY     37  16  42 W13       30.28R WCI  29
SOMERSET*      SUNNY     34  18  51 W12G17    30.34R WCI  25
MONTICELLO*    MOSUNNY   36  21  54 NW14      30.34S WCI  27
MIDDLESBORO*   MOSUNNY   40  21  46 NW9       30.28S WCI  34
HARLAN APT*    MOCLDY    36  18  48 SW13G20   30.24S WCI  27
PIKE CO APT*     N/A     37  18  46 W14G21    30.20F WCI  28
BIG SANDY APT* CLEAR     38  20  47 W10G20    30.22S WCI  31
MOREHEAD APT*  CLEAR     34  14  44 SW8G15    30.28S WCI  27
ASHLAND*       MOSUNNY   37  21  52 NW10G16   30.24S WCI  30
$$

KYZ035-036-041-042-044-050-067-078-099-082000
...CENTRAL KENTUCKY...

CITY           SKY/WX    TMP DP  RH WIND       PRES   REMARKS
MT STERLING*   MOSUNNY   34  19  55 NW13      30.30S WCI  25
FLEMING/MASON* SUNNY     32  15  47 W17       30.27F WCI  21
DANVILLE*      SUNNY     32  14  47 NW15      30.32S WCI  22
LEXINGTON      SUNNY     34  16  47 W10       30.30S WCI  26
FRANKFORT      SUNNY     34  16  47 W12G21    30.30F WCI  25
LOUISVILLE     MOSUNNY   36  12  37 W14G21    30.35F WCI  27
LEBANON*         N/A     32  14  47 W14       30.34S WCI  22
GLASGOW*       MOSUNNY   35  19  52 W10       30.38S WCI  27
BOWLING GREEN  SUNNY     36  15  42 NW14      30.41S WCI  27
$$

KYZ091>093-OHZ055-061-077-WVZ005-015-034-035-042-082000
...SOUTHERN OHIO/WEST VIRGINIA...

CITY           SKY/WX    TMP DP  RH WIND       PRES   REMARKS
COVINGTON      MOSUNNY   32  16  51 NW20      30.27S WCI  20
COLUMBUS       CLOUDY    25  18  74 NW17G26   30.23R WCI  12
DAYTON         FLURRIES  23  14  68 W17G25    30.26S WCI   9
WILMINGTON     PTSUNNY   27  16  63 W20G29    30.24R WCI  13
HUNTINGTON     MOSUNNY   37  16  42 W13       30.22F WCI  29
CHARLESTON     MOSUNNY   38  16  40 W9G26     30.18S WCI  31
PINEVILLE*       N/A     37  16  41 MISG      30.19F
BECKLEY        SUNNY     34  15  46 W22       30.09S WCI  22
BLUEFIELD      SUNNY     33  12  41 NW9G25    30.07F WCI  25
LOGAN CO APT*    N/A     36  12  38 NW10G22   30.16S WCI  28
$$

VAZ002-007-008-TNZ017-027-036-066-071-082000
...SOUTHWEST VIRGINIA/EAST TENNESSEE...

CITY           SKY/WX    TMP DP  RH WIND       PRES   REMARKS
WISE*          PTSUNNY   34  14  44 NW9       30.16S WCI  26
ABINGDON*      MOSUNNY   42  13  31 NW12G25   30.15R
BRISTOL        MOSUNNY   43  19  38 W14       30.19S
MORRISTOWN*    CLEAR     41  18  38 NW14G21   30.23S
SEVIERVILLE*   CLEAR     43  19  39 NW10      30.26F
OAK RIDGE      SUNNY     44  17  33 VRB6      30.30S
CROSSVILLE     SUNNY     38  17  42 NW9G17    30.28F WCI  31
NASHVILLE      PTSUNNY   40  15  36 N12       30.40F WCI  33
$$

...KEY TO REMARKS...
VSB - VISIBILITY IN MILES
WCI - WIND CHILL INDEX
HX  - HEAT INDEX

$$



USA.gov is the U.S. government's official web portal to all federal, state and local government web resources and services.